RYR92KQ LFBL-EGSS

Flight info

Callsign RYR92KQ
Flight time 1h 12m
Altitude 26000
Route BALAN DCT BOKNO UN858 VANAD UN874 BAMES UT191 KORIQ DCT KESAX DCT KUNAV Y8 BANVA
Aircraft B738/M-SDE2E3FGHIRWXY/LB1

Departure

Time 2026-04-25 17:22
Airport Limoges Airport (LFBL)

Arrival

Time 2026-04-25 18:35
Airport London Stansted Airport (EGSS)
Time Latitude Longitude Altitude Speed Heading
2026-04-25 16:47 45.86149 1.17728 1314 ft 0 kts 72°
2026-04-25 17:14 45.86152 1.17743 1314 ft 4 kts 72°
2026-04-25 17:15 45.86158 1.17771 1314 ft 5 kts 72°
2026-04-25 17:15 45.86155 1.17836 1314 ft 5 kts 96°
2026-04-25 17:15 45.86154 1.17844 1314 ft 0 kts 100°
2026-04-25 17:19 45.86154 1.17846 1314 ft 3 kts 100°
2026-04-25 17:19 45.86115 1.17947 1313 ft 20 kts 122°
2026-04-25 17:19 45.86165 1.18109 1311 ft 22 kts 34°
2026-04-25 17:20 45.86314 1.18251 1310 ft 30 kts 33°
2026-04-25 17:20 45.86484 1.18411 1310 ft 29 kts 33°
2026-04-25 17:20 45.86650 1.18568 1311 ft 28 kts 33°
2026-04-25 17:20 45.86805 1.18713 1310 ft 26 kts 33°
2026-04-25 17:21 45.86950 1.18849 1308 ft 24 kts 33°
2026-04-25 17:21 45.87061 1.19008 1309 ft 21 kts 64°
2026-04-25 17:21 45.87109 1.18998 1308 ft 7 kts 222°
2026-04-25 17:21 45.86977 1.18875 1308 ft 56 kts 213°
2026-04-25 17:22 45.86431 1.18362 1311 ft 127 kts 213°
2026-04-25 17:22 45.85876 1.17844 1406 ft 154 kts 215°
2026-04-25 17:22 45.84725 1.16734 2458 ft 148 kts 220°
2026-04-25 17:22 45.84184 1.15443 2946 ft 161 kts 268°
2026-04-25 17:23 45.84581 1.14035 3798 ft 155 kts 323°
2026-04-25 17:23 45.85566 1.13499 4610 ft 154 kts 343°
2026-04-25 17:23 45.86649 1.12980 5052 ft 180 kts 339°
2026-04-25 17:23 45.87923 1.12297 5442 ft 205 kts 338°
2026-04-25 17:24 45.89285 1.11537 6048 ft 214 kts 338°
2026-04-25 17:24 45.90702 1.10725 6773 ft 222 kts 338°
2026-04-25 17:24 45.92185 1.09858 7284 ft 240 kts 337°
2026-04-25 17:24 45.93803 1.09035 7894 ft 259 kts 346°
2026-04-25 17:25 45.95661 1.08554 8394 ft 279 kts 351°
2026-04-25 17:25 45.97600 1.08174 9308 ft 284 kts 352°
2026-04-25 17:25 45.99567 1.07801 10275 ft 287 kts 352°
2026-04-25 17:25 46.01607 1.07403 10795 ft 309 kts 351°
2026-04-25 17:26 46.03825 1.06954 11204 ft 330 kts 351°
2026-04-25 17:26 46.06126 1.06475 11988 ft 338 kts 351°
2026-04-25 17:26 46.08469 1.05977 12919 ft 343 kts 351°
2026-04-25 17:26 46.10842 1.05465 13867 ft 347 kts 351°
2026-04-25 17:27 46.13250 1.04938 14715 ft 353 kts 350°
2026-04-25 17:27 46.15694 1.04400 15609 ft 357 kts 350°
2026-04-25 17:27 46.18167 1.03852 16522 ft 362 kts 350°
2026-04-25 17:27 46.19818 1.03485 17118 ft 365 kts 350°
2026-04-25 17:28 46.23205 1.02731 18273 ft 372 kts 349°
2026-04-25 17:28 46.25781 1.02156 19027 ft 377 kts 349°
2026-04-25 17:28 46.28389 1.01573 19797 ft 382 kts 349°
2026-04-25 17:28 46.31028 1.00983 20545 ft 386 kts 349°
2026-04-25 17:29 46.33701 1.00384 21280 ft 391 kts 349°
2026-04-25 17:29 46.36408 0.99777 21995 ft 396 kts 349°
2026-04-25 17:29 46.39145 0.99163 22724 ft 400 kts 349°
2026-04-25 17:29 46.41911 0.98541 23429 ft 405 kts 349°
2026-04-25 17:30 46.44713 0.97912 24040 ft 410 kts 349°
2026-04-25 17:30 46.47534 0.97277 24715 ft 411 kts 349°
2026-04-25 17:30 46.50348 0.96644 25504 ft 408 kts 349°
2026-04-25 17:30 46.53160 0.96011 25923 ft 408 kts 348°
2026-04-25 17:31 46.55964 0.95379 26104 ft 409 kts 348°
2026-04-25 17:31 46.58770 0.94745 26105 ft 407 kts 349°
2026-04-25 17:31 46.61563 0.94114 26113 ft 406 kts 349°
2026-04-25 17:31 46.64350 0.93482 26119 ft 405 kts 349°
2026-04-25 17:32 46.67135 0.92851 26116 ft 405 kts 349°
2026-04-25 17:32 46.69925 0.92218 26116 ft 405 kts 349°
2026-04-25 17:32 46.72712 0.91585 26113 ft 406 kts 349°
2026-04-25 17:32 46.75462 0.90959 26112 ft 406 kts 349°
2026-04-25 17:33 46.78254 0.90323 26116 ft 406 kts 349°
2026-04-25 17:33 46.81046 0.89687 26116 ft 406 kts 349°
2026-04-25 17:33 46.83835 0.89051 26114 ft 406 kts 349°
2026-04-25 17:33 46.86630 0.88412 26114 ft 406 kts 349°
2026-04-25 17:34 46.89424 0.87774 26114 ft 406 kts 349°
2026-04-25 17:34 46.92218 0.87135 26114 ft 407 kts 349°
2026-04-25 17:34 46.95012 0.86494 26114 ft 407 kts 349°
2026-04-25 17:34 46.97807 0.85853 26125 ft 407 kts 349°
2026-04-25 17:35 47.00604 0.85211 26120 ft 407 kts 349°
2026-04-25 17:35 47.03400 0.84569 26116 ft 407 kts 349°
2026-04-25 17:35 47.06196 0.83925 26119 ft 407 kts 349°
2026-04-25 17:35 47.08992 0.83282 26119 ft 407 kts 349°
2026-04-25 17:36 47.11785 0.82638 26125 ft 406 kts 349°
2026-04-25 17:36 47.14577 0.81993 26126 ft 406 kts 349°
2026-04-25 17:36 47.17370 0.81348 26123 ft 407 kts 349°
2026-04-25 17:36 47.20165 0.80702 26125 ft 407 kts 349°
2026-04-25 17:37 47.22962 0.80054 26122 ft 407 kts 349°
2026-04-25 17:37 47.25760 0.79405 26124 ft 407 kts 349°
2026-04-25 17:37 47.28566 0.78821 26120 ft 408 kts 354°
2026-04-25 17:37 47.31408 0.78939 26134 ft 411 kts
2026-04-25 17:38 47.34207 0.79818 26137 ft 412 kts 13°
2026-04-25 17:38 47.36044 0.80527 26138 ft 412 kts 13°
2026-04-25 17:38 47.39748 0.81998 26140 ft 412 kts 13°
2026-04-25 17:38 47.42518 0.83100 26137 ft 412 kts 13°
2026-04-25 17:39 47.45254 0.84177 26123 ft 412 kts 13°
2026-04-25 17:39 47.48063 0.85271 26129 ft 412 kts 13°
2026-04-25 17:39 47.50798 0.86328 26125 ft 412 kts 13°
2026-04-25 17:39 47.53567 0.87393 26127 ft 411 kts 13°
2026-04-25 17:40 47.56338 0.88458 26131 ft 411 kts 13°
2026-04-25 17:40 47.59108 0.89521 26135 ft 411 kts 13°
2026-04-25 17:40 47.61876 0.90584 26128 ft 411 kts 13°
2026-04-25 17:40 47.64644 0.91648 26128 ft 411 kts 13°
2026-04-25 17:41 47.67408 0.92712 26126 ft 411 kts 13°
2026-04-25 17:41 47.70176 0.93778 26122 ft 411 kts 13°
2026-04-25 17:41 47.72946 0.94847 26123 ft 411 kts 13°
2026-04-25 17:41 47.75714 0.95917 26118 ft 411 kts 13°
2026-04-25 17:42 47.78480 0.96986 26120 ft 411 kts 13°
2026-04-25 17:42 47.81252 0.98060 26129 ft 411 kts 13°
2026-04-25 17:42 47.84018 0.99132 26118 ft 411 kts 13°
2026-04-25 17:42 47.86785 1.00206 26119 ft 411 kts 13°
2026-04-25 17:43 47.89551 1.01280 26120 ft 411 kts 13°
2026-04-25 17:43 47.92314 1.02355 26112 ft 410 kts 13°
2026-04-25 17:43 47.95077 1.03431 26119 ft 410 kts 13°
2026-04-25 17:43 47.97834 1.04505 26115 ft 410 kts 13°
2026-04-25 17:44 48.00593 1.05582 26123 ft 409 kts 13°
2026-04-25 17:44 48.03347 1.06658 26123 ft 409 kts 13°
2026-04-25 17:44 48.06098 1.07734 26120 ft 409 kts 13°
2026-04-25 17:44 48.08850 1.08811 26118 ft 408 kts 13°
2026-04-25 17:45 48.11597 1.09888 26116 ft 408 kts 13°
2026-04-25 17:45 48.12528 1.10253 26117 ft 408 kts 13°
2026-04-25 17:45 48.17090 1.12044 26122 ft 408 kts 13°
2026-04-25 17:45 48.19832 1.13123 26118 ft 408 kts 13°
2026-04-25 17:46 48.22576 1.14203 26126 ft 408 kts 13°
2026-04-25 17:46 48.25315 1.15282 26136 ft 407 kts 13°
2026-04-25 17:46 48.28057 1.16364 26119 ft 407 kts 13°
2026-04-25 17:46 48.30798 1.17447 26121 ft 407 kts 13°
2026-04-25 17:47 48.33536 1.18529 26127 ft 407 kts 13°
2026-04-25 17:47 48.36276 1.19614 26126 ft 407 kts 13°
2026-04-25 17:47 48.39012 1.20699 26120 ft 407 kts 13°
2026-04-25 17:47 48.41750 1.21785 26135 ft 407 kts 13°
2026-04-25 17:48 48.47223 1.23961 26126 ft 407 kts 12°
2026-04-25 17:48 48.49961 1.25050 26129 ft 407 kts 12°
2026-04-25 17:48 48.52698 1.26141 26131 ft 407 kts 12°
2026-04-25 17:49 48.55440 1.27249 26129 ft 408 kts 14°
2026-04-25 17:49 48.58154 1.28510 26128 ft 408 kts 16°
2026-04-25 17:49 48.60850 1.29873 26133 ft 409 kts 17°
2026-04-25 17:49 48.63538 1.31267 26133 ft 409 kts 17°
2026-04-25 17:50 48.66230 1.32663 26137 ft 409 kts 16°
2026-04-25 17:50 48.68929 1.34051 26134 ft 410 kts 16°
2026-04-25 17:50 48.71629 1.35430 26138 ft 410 kts 16°
2026-04-25 17:50 48.74300 1.36788 26137 ft 410 kts 16°
2026-04-25 17:51 48.77006 1.38160 26141 ft 410 kts 16°
2026-04-25 17:51 48.79715 1.39534 26146 ft 410 kts 16°
2026-04-25 17:51 48.82456 1.40926 26147 ft 410 kts 16°
2026-04-25 17:51 48.85123 1.42282 26148 ft 410 kts 16°
2026-04-25 17:52 48.87827 1.43658 26149 ft 410 kts 16°
2026-04-25 17:52 48.88740 1.44124 26151 ft 410 kts 16°
2026-04-25 17:52 48.93235 1.46415 26154 ft 410 kts 16°
2026-04-25 17:52 48.95936 1.47795 26151 ft 410 kts 16°
2026-04-25 17:53 48.98665 1.49004 26147 ft 407 kts
2026-04-25 17:53 49.01454 1.49720 26156 ft 406 kts
2026-04-25 17:53 49.04249 1.50320 26152 ft 406 kts
2026-04-25 17:53 49.07046 1.50906 26162 ft 406 kts
2026-04-25 17:54 49.09844 1.51513 26166 ft 406 kts
2026-04-25 17:54 49.12641 1.52142 26156 ft 406 kts
2026-04-25 17:54 49.15441 1.52789 26152 ft 407 kts
2026-04-25 17:54 49.18236 1.53444 26150 ft 406 kts
2026-04-25 17:55 49.21030 1.54102 26152 ft 406 kts
2026-04-25 17:55 49.23822 1.54759 26154 ft 406 kts
2026-04-25 17:55 49.26615 1.55415 26157 ft 406 kts
2026-04-25 17:55 49.29407 1.56041 26155 ft 406 kts
2026-04-25 17:56 49.32197 1.56646 26163 ft 405 kts
2026-04-25 17:56 49.34987 1.57245 26160 ft 405 kts
2026-04-25 17:56 49.37777 1.57846 26154 ft 404 kts
2026-04-25 17:56 49.40560 1.58448 26155 ft 404 kts
2026-04-25 17:57 49.43341 1.59053 26159 ft 404 kts
2026-04-25 17:57 49.46120 1.59659 26160 ft 403 kts
2026-04-25 17:57 49.48899 1.60267 26160 ft 403 kts
2026-04-25 17:57 49.49798 1.60464 26160 ft 403 kts
2026-04-25 17:58 49.54413 1.61477 26172 ft 403 kts
2026-04-25 17:58 49.57188 1.62087 26169 ft 403 kts
2026-04-25 17:58 49.59962 1.62698 26168 ft 403 kts
2026-04-25 17:58 49.62738 1.63309 26167 ft 403 kts
2026-04-25 17:59 49.65511 1.63921 26166 ft 403 kts
2026-04-25 17:59 49.68288 1.64534 26170 ft 403 kts
2026-04-25 17:59 49.71062 1.65147 26170 ft 403 kts
2026-04-25 17:59 49.72935 1.65535 26169 ft 402 kts
2026-04-25 18:00 49.75682 1.65839 26177 ft 400 kts 359°
2026-04-25 18:00 49.79403 1.66006 26177 ft 400 kts 358°
2026-04-25 18:00 49.81245 1.66065 26179 ft 400 kts 358°
2026-04-25 18:00 49.84031 1.66163 26177 ft 401 kts 358°
2026-04-25 18:01 49.86819 1.66285 26181 ft 401 kts 358°
2026-04-25 18:01 49.89608 1.66426 26177 ft 401 kts 358°
2026-04-25 18:01 49.92401 1.66578 26177 ft 402 kts 359°
2026-04-25 18:01 49.95193 1.66736 26179 ft 402 kts 359°
2026-04-25 18:02 49.97987 1.66895 26185 ft 402 kts 359°
2026-04-25 18:02 50.00782 1.67053 26181 ft 402 kts 359°
2026-04-25 18:02 50.03575 1.67198 26178 ft 401 kts 356°
2026-04-25 18:02 50.06309 1.66639 26180 ft 394 kts 340°
2026-04-25 18:03 50.08795 1.64965 26189 ft 388 kts 325°
2026-04-25 18:03 50.10929 1.62453 26195 ft 384 kts 316°
2026-04-25 18:03 50.12936 1.59713 26184 ft 384 kts 315°
2026-04-25 18:03 50.14928 1.56938 26180 ft 384 kts 315°
2026-04-25 18:04 50.16920 1.54162 26182 ft 384 kts 315°
2026-04-25 18:04 50.18918 1.51396 26196 ft 384 kts 316°
2026-04-25 18:04 50.20922 1.48637 26190 ft 384 kts 316°
2026-04-25 18:04 50.22879 1.45803 26185 ft 383 kts 313°
2026-04-25 18:05 50.24729 1.42811 26190 ft 383 kts 311°
2026-04-25 18:05 50.26538 1.39761 26190 ft 382 kts 310°
2026-04-25 18:05 50.28335 1.36699 26187 ft 382 kts 311°
2026-04-25 18:05 50.30134 1.33641 26190 ft 382 kts 311°
2026-04-25 18:06 50.31938 1.30593 26186 ft 381 kts 311°
2026-04-25 18:06 50.33744 1.27555 26193 ft 381 kts 311°
2026-04-25 18:06 50.35551 1.24526 26195 ft 381 kts 311°
2026-04-25 18:06 50.37359 1.21499 26195 ft 380 kts 311°
2026-04-25 18:07 50.39167 1.18473 26198 ft 380 kts 311°
2026-04-25 18:07 50.40975 1.15446 26197 ft 380 kts 311°
2026-04-25 18:07 50.42780 1.12420 26207 ft 380 kts 311°
2026-04-25 18:07 50.44587 1.09390 26208 ft 380 kts 311°
2026-04-25 18:08 50.46366 1.06403 26205 ft 380 kts 311°
2026-04-25 18:08 50.48170 1.03368 26204 ft 380 kts 311°
2026-04-25 18:08 50.49972 1.00334 26204 ft 380 kts 311°
2026-04-25 18:08 50.51773 0.97298 26207 ft 380 kts 311°
2026-04-25 18:09 50.53574 0.94260 26210 ft 380 kts 311°
2026-04-25 18:09 50.55373 0.91219 26206 ft 379 kts 311°
2026-04-25 18:09 50.57167 0.88184 26211 ft 379 kts 312°
2026-04-25 18:09 50.58378 0.86134 26208 ft 378 kts 311°
2026-04-25 18:10 50.60744 0.82122 26210 ft 377 kts 311°
2026-04-25 18:10 50.62526 0.79096 26212 ft 377 kts 311°
2026-04-25 18:10 50.64307 0.76069 26212 ft 376 kts 311°
2026-04-25 18:10 50.66084 0.73045 26219 ft 376 kts 311°
2026-04-25 18:11 50.67861 0.70016 26215 ft 376 kts 311°
2026-04-25 18:11 50.69635 0.66989 26211 ft 376 kts 311°
2026-04-25 18:11 50.71408 0.63961 26212 ft 376 kts 311°
2026-04-25 18:11 50.73183 0.60926 26213 ft 376 kts 311°
2026-04-25 18:12 50.74956 0.57889 26213 ft 376 kts 311°
2026-04-25 18:12 50.76728 0.54852 26215 ft 376 kts 311°
2026-04-25 18:12 50.78501 0.51808 26216 ft 376 kts 311°
2026-04-25 18:12 50.80275 0.48761 26215 ft 377 kts 311°
2026-04-25 18:13 50.82052 0.45703 25824 ft 380 kts 311°
2026-04-25 18:13 50.83822 0.42654 25411 ft 374 kts 311°
2026-04-25 18:13 50.85573 0.39635 24942 ft 370 kts 311°
2026-04-25 18:14 50.89015 0.33687 23993 ft 363 kts 311°
2026-04-25 18:14 50.90716 0.30743 23439 ft 361 kts 311°
2026-04-25 18:14 50.92404 0.27818 22912 ft 358 kts 311°
2026-04-25 18:14 50.94072 0.24923 22436 ft 353 kts 311°
2026-04-25 18:15 50.95725 0.22053 21943 ft 350 kts 311°
2026-04-25 18:15 50.97353 0.19223 21483 ft 347 kts 311°
2026-04-25 18:15 50.98973 0.16404 21006 ft 344 kts 311°
2026-04-25 18:15 51.00579 0.13605 20540 ft 342 kts 311°
2026-04-25 18:16 51.02236 0.10938 20252 ft 337 kts 318°
2026-04-25 18:16 51.04093 0.08666 19964 ft 338 kts 323°
2026-04-25 18:16 51.08071 0.04397 19472 ft 348 kts 325°
2026-04-25 18:17 51.10074 0.02262 19213 ft 345 kts 325°
2026-04-25 18:17 51.12055 0.00124 18979 ft 344 kts 324°
2026-04-25 18:17 51.14028 -0.02029 18681 ft 343 kts 324°
2026-04-25 18:17 51.15984 -0.04182 18448 ft 342 kts 324°
2026-04-25 18:18 51.17933 -0.06338 18182 ft 341 kts 324°
2026-04-25 18:18 51.19875 -0.08494 17932 ft 339 kts 324°
2026-04-25 18:18 51.21810 -0.10647 17690 ft 338 kts 324°
2026-04-25 18:18 51.23734 -0.12792 17453 ft 337 kts 324°
2026-04-25 18:19 51.25655 -0.14935 17221 ft 336 kts 324°
2026-04-25 18:19 51.27572 -0.17077 16985 ft 336 kts 324°
2026-04-25 18:19 51.29483 -0.19214 16758 ft 335 kts 324°
2026-04-25 18:19 51.31388 -0.21347 16533 ft 334 kts 324°
2026-04-25 18:20 51.33290 -0.23478 16314 ft 333 kts 324°
2026-04-25 18:20 51.35187 -0.25606 16176 ft 335 kts 324°
2026-04-25 18:20 51.37095 -0.27748 15859 ft 334 kts 324°
2026-04-25 18:20 51.38981 -0.29868 15615 ft 329 kts 324°
2026-04-25 18:21 51.40851 -0.31950 15390 ft 327 kts 327°
2026-04-25 18:21 51.42964 -0.33281 15144 ft 330 kts 350°
2026-04-25 18:21 51.45255 -0.33237 14930 ft 332 kts
2026-04-25 18:21 51.47440 -0.32011 14725 ft 334 kts 22°
2026-04-25 18:22 51.49540 -0.30423 14485 ft 334 kts 24°
2026-04-25 18:22 51.50244 -0.29871 14406 ft 334 kts 24°
2026-04-25 18:22 51.53697 -0.27142 14211 ft 330 kts 24°
2026-04-25 18:22 51.55731 -0.25545 14177 ft 319 kts 24°
2026-04-25 18:23 51.57672 -0.24032 14176 ft 303 kts 24°
2026-04-25 18:23 51.59524 -0.22596 14229 ft 289 kts 23°
2026-04-25 18:23 51.61339 -0.21196 13728 ft 293 kts 23°
2026-04-25 18:23 51.63234 -0.19741 12767 ft 311 kts 24°
2026-04-25 18:24 51.65235 -0.18202 11843 ft 325 kts 24°
2026-04-25 18:24 51.67289 -0.16618 11253 ft 328 kts 24°
2026-04-25 18:24 51.69338 -0.15035 10876 ft 320 kts 24°
2026-04-25 18:24 51.71270 -0.13540 10734 ft 297 kts 24°
2026-04-25 18:25 51.73085 -0.12135 10384 ft 285 kts 24°
2026-04-25 18:25 51.74871 -0.10754 9765 ft 284 kts 24°
2026-04-25 18:25 51.76665 -0.09439 9161 ft 282 kts 22°
2026-04-25 18:25 51.78472 -0.08181 8658 ft 283 kts 22°
2026-04-25 18:26 51.80242 -0.06965 8599 ft 271 kts 21°
2026-04-25 18:26 51.81932 -0.05770 8509 ft 260 kts 27°
2026-04-25 18:26 51.83467 -0.04320 8169 ft 253 kts 30°
2026-04-25 18:26 51.84968 -0.02825 7683 ft 253 kts 31°
2026-04-25 18:27 51.86458 -0.01331 7203 ft 251 kts 31°
2026-04-25 18:27 51.87935 0.00158 6793 ft 249 kts 31°
2026-04-25 18:27 51.89239 0.01956 6336 ft 249 kts 56°
2026-04-25 18:27 51.89641 0.04592 6151 ft 240 kts 95°
2026-04-25 18:28 51.88983 0.06975 5921 ft 233 kts 134°
2026-04-25 18:28 51.87577 0.08164 5542 ft 232 kts 174°
2026-04-25 18:28 51.86037 0.07660 5157 ft 229 kts 211°
2026-04-25 18:29 51.83449 0.04756 4396 ft 226 kts 216°
2026-04-25 18:29 51.82193 0.03326 4224 ft 216 kts 216°
2026-04-25 18:30 51.78301 0.01217 3410 ft 201 kts 144°
2026-04-25 18:30 51.77565 0.02970 3328 ft 186 kts 103°
2026-04-25 18:30 51.77302 0.04947 3153 ft 181 kts 98°
2026-04-25 18:30 51.77459 0.06884 3044 ft 169 kts 54°
2026-04-25 18:31 51.78287 0.08095 2880 ft 161 kts 40°
2026-04-25 18:31 51.79107 0.09316 2671 ft 159 kts 43°
2026-04-25 18:31 51.79910 0.10539 2452 ft 158 kts 43°
2026-04-25 18:31 51.80707 0.11745 2242 ft 156 kts 43°
2026-04-25 18:32 51.81496 0.12934 2030 ft 154 kts 43°
2026-04-25 18:32 51.82275 0.14109 1823 ft 151 kts 43°
2026-04-25 18:32 51.83029 0.15244 1653 ft 142 kts 43°
2026-04-25 18:32 51.83725 0.16294 1437 ft 133 kts 43°
2026-04-25 18:33 51.84393 0.17300 1265 ft 132 kts 43°
2026-04-25 18:33 51.85070 0.18320 1091 ft 134 kts 43°
2026-04-25 18:33 51.85756 0.19352 909 ft 135 kts 43°
2026-04-25 18:33 51.86440 0.20389 718 ft 134 kts 43°
2026-04-25 18:34 51.87118 0.21413 543 ft 134 kts 43°
2026-04-25 18:34 51.87801 0.22430 370 ft 135 kts 43°
2026-04-25 18:34 51.88401 0.23331 347 ft 90 kts 43°
2026-04-25 18:34 51.88740 0.23841 347 ft 51 kts 45°
2026-04-25 18:35 51.88880 0.24230 348 ft 23 kts 72°
2026-04-25 18:35 51.88904 0.24356 354 ft 7 kts 72°
2026-04-25 18:35 51.88920 0.24457 352 ft 12 kts 89°
2026-04-25 18:35 51.88914 0.24586 350 ft 13 kts 55°
2026-04-25 18:36 51.88981 0.24686 348 ft 13 kts 43°
2026-04-25 18:36 51.89058 0.24803 351 ft 18 kts 43°
2026-04-25 18:36 51.89153 0.24944 351 ft 18 kts 43°
2026-04-25 18:36 51.89225 0.25074 351 ft 12 kts 57°
2026-04-25 18:37 51.89237 0.25107 351 ft 1 kts 60°
2026-04-25 18:37 51.89250 0.25142 355 ft 9 kts 58°
2026-04-25 18:37 51.89331 0.25282 353 ft 22 kts 43°
2026-04-25 18:37 51.89417 0.25455 351 ft 17 kts 91°
2026-04-25 18:38 51.89365 0.25613 350 ft 14 kts 122°
2026-04-25 18:38 51.89316 0.25705 352 ft 8 kts 126°
2026-04-25 18:38 51.89331 0.25767 354 ft 6 kts 44°
2026-04-25 18:38 51.89343 0.25786 348 ft 0 kts 43°
2026-04-25 18:39 51.89345 0.25789 348 ft 0 kts 43°